User: anonymous   Login
Location: Elstree
(51.6403°N, 0.2969°W)
Time: 01:25:46
(UTC+00:00)
Language:

Cosmos 1869 Rocket - Orbit

View from above orbital plane
View from above orbital plane
View from above satellite
View from above satellite

Ground track
Ground track

The orbit data is extracted from the following two-line orbital elements,

1 18215U 87062B   21127.79858569  .00000064  00000-0  48569-5 0  9997
2 18215  82.5156  32.0330 0021788 122.0064 299.1152 14.83260038826547
Epoch (UTC): 07 May 2021 19:09:57
Eccentricity: 0.0021788
inclination: 82.5156°
perigee height: 604 km
apogee height: 634 km
right ascension of ascending node: 32.0330°
argument of perigee: 122.0064°
revolutions per day: 14.83260038
mean anomaly at epoch: 299.1152°
orbit number at epoch: 82654

The dashed part of the orbit path shows where the satellite is in the earth's shadow,  

DLR